Overview Statistics Trail Chart Weather Telemetry Raw packets
 

This is the latest recevied weather packets stored in our database for station/object SV4JYD-13. If no packets are shown the sender has not sent any weather packets the latest 10 day(s).

<< 30 31 32 33 34 35 36 >>
Time Temp. Humidity Pressure Rain* Wind** Luminosity Snow
1777307755 15.56° C 88% 1021 hPa 0 mm - - -
1777306855 15.56° C 85% 1020 hPa 0 mm - - -
1777305954 15.56° C 81% 1020 hPa 0 mm - - -
1777305054 15.56° C 76% 1020 hPa 0 mm - - -
1777304154 16.11° C 76% 1020 hPa 0 mm - - -
1777302353 16.11° C 69% 1020 hPa 0 mm - - -
1777301453 16.67° C 69% 1020 hPa 0 mm - - -
1777300553 17.22° C 69% 1020 hPa 0 mm - - -
1777299653 17.78° C 69% 1020 hPa 0 mm - - -
1777298752 18.33° C 69% 1020 hPa 0 mm - - -
1777298179 18.89° C 69% 1020 hPa 0 mm - - -
1777297282 20° C 10% - 0 mm - - -
1777296378 20° C 10% - 0 mm - - -
1777295478 20.56° C 10% - 0 mm - - -
1777294578 20° C 10% - 0 mm - - -
1777292777 20.56° C 10% - 0 mm - - -
1777291877 20.56° C 10% - 0 mm - - -
1777290977 20.56° C 10% - 0 mm - - -
1777290076 17.22° C 71% 1022 hPa 0 mm - - -
1777289176 17.78° C 71% 1022 hPa 0 mm - - -
1777288276 18.33° C 71% 1022 hPa 0 mm - - -
1777287375 18.89° C 71% 1022 hPa 0 mm - - -
1777286475 19.44° C 71% 1022 hPa 0 mm - - -
1777285575 20.56° C 73% 1022 hPa 0 mm - - -
1777284675 20.56° C 73% 1022 hPa 0 mm - - -

* Rain latest hour (hover to see other rain measurements)
** Current wind speed in m/s (hover to see current wind gust speed)